Weather History for Buffalo, SD

Change the Weather History Date:

Friday, February 15, 2013

  Actual Average Record
Temperature  
Mean Temperature 21 °F 24 °F  
Max Temperature 34 °F 34 °F 50 °F (2011)
Min Temperature 7 °F 13 °F -20 °F (2007)
Degree Days  
Heating Degree Days 44 42  
Month to date heating degree days 514 643  
Since 1 July heating degree days 4847 5282  
Cooling Degree Days 0 0  
Month to date cooling degree days 0 0  
Year to date cooling degree days 0 0  
Moisture  
Dew Point 14 °F    
Average Humidity 66    
Maximum Humidity 91    
Minimum Humidity 41    
Precipitation  
Precipitation 0.00 in 0.01 in 0.00 in (2014)
Month to date precipitation 0.02 0.16  
Year to date precipitation 0.12 0.45  
Sea Level Pressure  
Sea Level Pressure 30.29 in    
Wind  
Wind Speed 10 mph (West)    
Max Wind Speed 22 mph    
Max Gust Speed 28 mph    
T = Trace of Precipitation, MM = Missing Value Source: NWS Daily Summary

Daily Weather History Graph

Daily Weather History Graph

Search for Another Location

Airport:

Trip Planner

Search our weather history database for the weather conditions in past years. The results will help you decide how hot, cold, wet, or windy it might be!

Date:

Astronomy

Feb. 15, 2013 Rise Set
Actual Time 6:55 AM MST 5:21 PM MST
Civil Twilight 6:25 AM MST 5:52 PM MST
Nautical Twilight 5:50 AM MST 6:26 PM MST
Astronomical Twilight 5:16 AM MST 7:01 PM MST
Moon 9:13 AM MST (2/15) 11:46 PM MST (2/15)
Length of Visible Light 11h 27m
Length of Day
10h 26m
Waxing Crescent, 31% of the Moon is Illuminated
Feb 15
Waxing Crescent
Feb 17
First Quarter
Feb 25
Full
Mar 4
Last Quarter
Mar 11
New

Hourly Weather History & Observations

Time (MST) Temp. Windchill Dew Point Humidity Pressure Visibility Wind Dir Wind Speed Gust Speed Precip Events Conditions
12:56 AM 12.9 °F 2.6 °F 9.0 °F 84% 30.32 in - West 6.9 mph - N/A   Unknown
1:56 AM 12.9 °F 1.6 °F 9.0 °F 84% 30.32 in - West 8.1 mph - N/A   Unknown
2:56 AM 16.0 °F 0.1 °F 12.9 °F 88% 30.32 in - NW 17.3 mph - N/A   Unknown
3:56 AM 14.0 °F 2.9 °F 10.0 °F 84% 30.34 in - NW 8.1 mph - N/A   Unknown
4:56 AM 12.9 °F 3.8 °F 8.1 °F 81% 30.35 in - NNW 5.8 mph - N/A   Unknown
5:56 AM 12.0 °F - 8.1 °F 84% 30.36 in - Calm Calm - N/A   Unknown
6:56 AM 8.1 °F -2.0 °F 5.0 °F 87% 30.38 in - West 5.8 mph - N/A   Unknown
7:56 AM 9.0 °F -2.2 °F 6.1 °F 88% 30.40 in - WNW 6.9 mph - N/A   Unknown
8:56 AM 17.1 °F 11.7 °F 12.9 °F 84% 30.39 in - WSW 3.5 mph - N/A   Unknown
9:56 AM 25.0 °F 10.9 °F 16.0 °F 69% 30.38 in - NW 19.6 mph - N/A   Unknown
10:56 AM 28.0 °F 15.3 °F 16.0 °F 61% 30.38 in - NNW 18.4 mph 23.0 mph N/A   Unknown
11:56 AM 30.0 °F 18.7 °F 16.0 °F 56% 30.36 in - NNW 16.1 mph 24.2 mph N/A   Unknown
12:56 PM 30.9 °F 23.5 °F 14.0 °F 50% 30.35 in - NNW 8.1 mph 19.6 mph N/A   Unknown
1:56 PM 32.0 °F 22.5 °F 12.0 °F 44% 30.32 in - NW 12.7 mph - N/A   Unknown
2:56 PM 34.0 °F 24.2 °F 12.9 °F 42% 30.29 in - WNW 15.0 mph 21.9 mph N/A   Unknown
3:56 PM 32.0 °F 22.5 °F 12.9 °F 45% 30.31 in - WNW 12.7 mph - N/A   Unknown
4:56 PM 28.0 °F 19.3 °F 12.0 °F 51% 30.28 in - WSW 9.2 mph - N/A   Unknown
5:56 PM 28.0 °F 18.6 °F 16.0 °F 61% 30.27 in - SW 10.4 mph - N/A   Unknown
6:56 PM 26.1 °F 16.8 °F 18.0 °F 71% 30.25 in - WSW 9.2 mph - N/A   Unknown
7:56 PM 28.9 °F 18.6 °F 21.0 °F 72% 30.20 in - SW 12.7 mph - N/A   Unknown
8:56 PM 28.9 °F 18.6 °F 21.0 °F 72% 30.16 in - SW 12.7 mph - N/A   Unknown
9:56 PM 30.0 °F 22.4 °F 19.9 °F 66% 30.09 in - SW 8.1 mph - N/A   Unknown
10:56 PM 30.9 °F 22.2 °F 21.0 °F 67% 30.04 in - WSW 10.4 mph - N/A   Unknown
11:56 PM 32.0 °F 22.1 °F 21.9 °F 66% 30.00 in - WSW 13.8 mph - N/A   Unknown